Total_Precipitation_Accumulation
1.56 1.46 1.40 1.27 1.19 1.19 1.24 1.43 1.70 1.43 0.82 0.57 0.61 0.64 0.72 0.80 0.92 0.93 0.94 1.10 1.18 1.22 1.24 1.32 1.47 1.58 1.77 2.07 2.70 3.50 4.10 4.49 4.50 4.29 4.12 4.16 4.51 4.95
1.73 1.72 1.64 1.53 1.46 1.38 1.36 1.40 1.62 1.84 1.40 0.69 0.65 0.72 0.79 0.84 0.96 0.93 0.92 1.07 1.11 1.20 1.29 1.32 1.41 1.51 1.64 1.80 2.08 2.67 3.42 3.95 4.33 4.56 4.60 4.61 4.72 4.98
1.65 1.67 1.64 1.60 1.62 1.58 1.55 1.52 1.54 1.74 1.73 0.94 0.67 0.72 0.85 0.91 0.93 0.91 0.91 0.96 1.01 1.14 1.26 1.34 1.41 1.49 1.56 1.69 1.87 2.15 2.75 3.38 3.86 4.38 4.79 4.89 4.90 4.93
1.56 1.60 1.57 1.57 1.61 1.62 1.66 1.63 1.58 1.61 1.74 1.37 0.91 0.85 0.91 0.94 0.98 1.00 0.94 0.93 0.95 1.09 1.23 1.36 1.41 1.47 1.53 1.61 1.74 1.93 2.25 2.81 3.33 3.73 4.22 4.55 4.66 4.90
1.43 1.48 1.50 1.56 1.60 1.58 1.59 1.61 1.56 1.50 1.55 1.56 1.17 0.96 0.99 1.02 1.09 1.11 1.09 1.08 1.03 1.11 1.19 1.31 1.41 1.45 1.52 1.59 1.66 1.74 1.89 2.16 2.67 3.29 3.84 4.28 4.40 4.49
1.29 1.35 1.43 1.54 1.62 1.70 1.79 1.70 1.63 1.70 1.71 1.72 1.46 1.18 1.09 1.07 1.24 1.31 1.29 1.22 1.16 1.08 1.15 1.20 1.32 1.43 1.45 1.47 1.49 1.55 1.68 1.98 2.41 2.96 3.42 3.88 4.16 4.17
1.23 1.23 1.28 1.51 1.77 2.00 2.13 2.06 2.02 2.11 2.06 2.03 1.81 1.49 1.30 1.29 1.35 1.33 1.40 1.30 1.26 1.21 1.18 1.10 1.10 1.10 1.17 1.32 1.42 1.49 1.60 1.78 2.06 2.46 2.97 3.41 3.82 4.08
1.31 1.26 1.26 1.38 1.51 1.72 1.97 2.04 2.12 2.26 2.34 2.29 2.11 1.82 1.43 1.30 1.35 1.53 1.69 1.73 1.58 1.19 1.19 1.18 1.16 1.25 1.20 1.20 1.39 1.49 1.55 1.68 1.91 2.19 2.53 2.88 3.25 3.71
1.24 1.17 1.19 1.20 1.31 1.22 1.38 1.51 1.58 1.80 2.07 2.24 2.29 1.85 1.53 1.41 1.65 1.91 1.93 1.93 1.66 1.38 1.49 1.62 1.40 1.40 1.30 1.38 1.60 1.54 1.61 1.73 1.87 2.05 2.29 2.60 2.87 3.23
1.20 1.18 1.17 1.14 1.17 1.30 1.37 1.38 1.26 1.28 1.53 1.78 1.92 1.75 1.65 1.67 1.94 2.28 2.44 2.49 2.10 1.69 1.70 2.01 1.61 1.46 1.38 1.40 1.63 1.60 1.59 1.71 1.84 2.00 2.15 2.31 2.54 2.86
1.21 1.33 1.38 1.27 1.36 1.61 1.69 1.63 1.39 1.20 1.28 1.63 1.92 1.97 2.04 2.25 2.50 2.90 3.22 3.34 2.97 2.17 1.84 2.06 1.80 1.56 1.51 1.49 1.56 1.67 1.66 1.69 1.76 1.90 2.07 2.20 2.37 2.64
1.25 1.38 1.72 1.67 1.69 1.78 1.77 1.80 1.75 1.39 1.25 1.30 1.41 1.52 1.55 1.66 2.08 2.40 2.73 3.12 3.08 2.70 2.02 2.03 2.01 1.97 2.14 1.70 1.46 1.42 1.50 1.69 1.79 1.82 1.97 2.12 2.34 2.37
1.43 1.45 1.57 1.74 1.75 1.80 1.86 1.81 1.87 1.79 1.68 1.64 1.54 1.45 1.46 1.58 1.74 1.98 2.26 2.67 2.99 2.78 2.14 2.32 2.50 2.32 2.40 2.03 1.60 1.47 1.41 1.43 1.52 1.69 1.90 2.10 2.27 2.38
1.47 1.35 1.44 1.68 1.74 1.79 1.75 1.80 1.93 1.95 1.81 1.76 1.67 1.55 1.48 1.50 1.54 1.68 1.95 2.16 2.36 2.45 2.19 2.43 2.87 2.64 2.62 2.27 1.79 1.63 1.54 1.48 1.46 1.56 1.68 2.04 2.20 2.34
1.45 1.65 1.66 1.67 1.62 1.55 1.59 1.68 1.66 1.60 1.67 1.67 1.52 1.35 1.25 1.26 1.37 1.55 1.75 1.95 2.11 2.18 2.20 2.23 2.44 2.53 2.75 2.64 2.02 1.69 1.70 1.71 1.60 1.60 1.68 1.78 1.89 2.03
1.46 1.58 1.59 1.47 1.38 1.36 1.44 1.46 1.41 1.48 1.62 1.64 1.49 1.34 1.26 1.31 1.42 1.51 1.70 1.86 2.15 2.19 2.10 2.13 2.27 2.60 2.86 2.49 2.22 1.95 1.72 1.90 1.85 1.75 1.74 1.78 1.80 1.82
1.71 1.68 1.55 1.40 1.33 1.25 1.22 1.20 1.23 1.38 1.52 1.49 1.51 1.51 1.47 1.46 1.48 1.49 1.67 1.84 2.04 1.99 1.97 2.08 2.27 2.51 2.76 2.75 2.65 2.18 1.86 1.81 1.86 1.89 1.87 1.90 1.87 1.83
1.73 1.64 1.41 1.29 1.24 1.18 1.19 1.20 1.19 1.23 1.28 1.37 1.48 1.52 1.54 1.56 1.56 1.55 1.70 1.88 1.94 1.84 1.85 1.98 2.30 2.78 3.07 3.05 2.68 2.32 2.03 1.91 1.97 2.05 1.96 1.96 1.92 1.76
1.45 1.32 1.23 1.20 1.19 1.17 1.18 1.20 1.19 1.14 1.20 1.35 1.46 1.53 1.57 1.62 1.62 1.63 1.67 1.77 1.82 1.78 1.81 1.93 2.29 2.87 3.13 2.85 2.61 2.30 2.15 2.01 2.05 2.23 2.14 1.91 1.82 1.69
1.21 1.23 1.21 1.18 1.17 1.19 1.21 1.22 1.20 1.18 1.23 1.31 1.37 1.41 1.49 1.61 1.63 1.55 1.54 1.67 1.76 1.79 1.86 1.96 2.23 2.63 2.99 2.67 2.49 2.40 2.25 2.19 2.24 2.38 2.24 1.93 1.81 1.84
1.14 1.17 1.17 1.21 1.22 1.20 1.18 1.19 1.23 1.26 1.23 1.26 1.28 1.29 1.35 1.50 1.54 1.42 1.45 1.58 1.79 1.90 1.90 1.86 1.99 2.30 2.64 2.80 2.75 2.47 2.38 2.35 2.31 2.44 2.37 2.27 2.12 1.98
1.10 1.16 1.14 1.16 1.22 1.25 1.24 1.23 1.26 1.24 1.22 1.23 1.23 1.23 1.28 1.42 1.49 1.42 1.47 1.59 1.67 1.72 1.77 1.80 1.91 2.26 2.73 2.95 2.70 2.37 2.35 2.42 2.50 2.43 2.38 2.38 2.54 2.48
1.22 1.19 1.13 1.09 1.12 1.18 1.24 1.25 1.25 1.21 1.17 1.23 1.27 1.27 1.31 1.40 1.39 1.45 1.49 1.54 1.62 1.67 1.72 1.88 2.02 2.25 2.50 2.52 2.52 2.40 2.26 2.26 2.33 2.42 2.61 2.34 1.95 1.81